Regional Weather Roundup
Issued by NWS Sterling, VA

Home | Current Version | Previous Version | Text Only | Print | Product List | Glossary On
Versions: 1 2 3 4 5 6 7 8 9 10 11 12 13 14 15 16 17 18 19 20 21 22 23 24 25 26 27 28 29 30 31 32 33 34 35 36 37 38 39 40 41 42 43 44 45 46 47 48 49 50
000
ASUS41 KLWX 231011
RWRLWX

REGIONAL WEATHER ROUNDUP
NATIONAL WEATHER SERVICE BALTIMORE MD/WASHINGTON DC
600 AM EDT SUN APR 23 2017

Note: "FAIR" indicates few or no clouds below 12,000 feet
with no significant weather and/or obstructions to visibility.
 TC=TEMPERATURE CELSIUS

 * =Non NWS site. Station does not report precipitation (e.g. rain,
    snow, etc.), thunder, or fog.

DCZ001-MDZ009-015-VAZ040>042-051-053>054-231100-
WASHINGTON METRO

CITY           SKY/WX    TMP DP  RH WIND       PRES   REMARKS
WASHINGTON NAT CLOUDY    50  42  74 N12       30.08S
DULLES         MOCLDY    47  40  76 N8        30.09R
ANDREWS AFB    MOCLDY    46  42  85 N10       30.06S
FT BELVOIR     CLOUDY    49  42  77 NW5       30.08R
QUANTICO       CLOUDY    51  46  83 N9        30.09R
COLLEGE PARK*  CLOUDY    47  40  77 N5        30.08R
LEESBURG*      PTCLDY    45  43  93 N5        30.11R
MANASSAS*        N/A     47  43  86 N8        30.09R

$$

MDZ006>007-011-014-231100-
BALTIMORE METRO

CITY           SKY/WX    TMP DP  RH WIND       PRES   REMARKS
BWI AIRPORT    CLOUDY    46  39  76 N8        30.07S
MD SCIENCE CTR   N/A     50  37  61 MISG      30.08S
MARTIN STATE   MOCLDY    48  43  81 NW5       30.10R
ANNAPOLIS      CLOUDY    51  42  71 N7        30.06S

$$

MDZ012-015-019>023-231100-
MARYLAND EASTERN SHORE

CITY           SKY/WX    TMP DP  RH WIND       PRES   REMARKS
OCEAN CITY     LGT RAIN  50  42  74 NE10      30.03R
SALISBURY      PTCLDY    49  45  86 N7        30.04R
BAY BRIDGE AP* CLOUDY    48  39  71 NE9       30.07R
CAMBRIDGE*     CLOUDY    50  41  71 N8G15     30.06R
EASTON*        MOCLDY    48  39  71 NE7       30.10R

$$

MDZ017>025-231100-
SOUTHERN MARYLAND

CITY           SKY/WX    TMP DP  RH WIND       PRES   REMARKS
PATUXENT RIVER CLOUDY    51  44  77 NE16      30.05R
ST INIGOES     CLOUDY    51  44  77 NE6       30.04R
LEONARDTOWN*   CLOUDY    50  43  76 NE6       30.06S

$$

MDZ003>005-231100-
NORTH CENTRAL MARYLAND

CITY           SKY/WX    TMP DP  RH WIND       PRES   REMARKS
FREDERICK*     CLEAR     43  43 100 N3        30.12F
HAGERSTOWN APT CLEAR     41  38  89 NW6       30.10R
WESTMINSTER*   CLEAR     43  39  87 N3        30.09S

$$

MDZ501>502-231100-
WESTERN MARYLAND

CITY           SKY/WX    TMP DP  RH WIND       PRES   REMARKS
OAKLAND*       CLOUDY    36  34  93 E9        30.04S WCI  29
CUMBERLAND*    CLOUDY    43  43 100 CALM      30.15R VSB 1/4

$$

VAZ025>031-231100-
SHENANDOAH VALLEY

CITY           SKY/WX    TMP DP  RH WIND       PRES   REMARKS
WINCHESTER*    PTCLDY    41  37  87 N3        30.09S
FRONT ROYAL*   CLOUDY    43  43 100 CALM      30.09R VSB 1/4
LURAY*         CLOUDY    45  45 100 N5        30.09R FOG
NEW MARKET*    CLOUDY    43  42  96 CALM      30.08R
STAUNTON*      CLOUDY    47  45  95 NE3       30.08S
WAYNESBORO*    CLOUDY    46  46  99 CALM      30.06R

$$

WVZ021-048>050-054>055-231100-
EASTERN WEST VIRGINIA PANHANDLE

CITY           SKY/WX    TMP DP  RH WIND       PRES   REMARKS
MARTINSBURG    CLEAR     43  38  82 N6        30.10R
PETERSBURG*    FOG       44  44  99 N3        30.11R VSB 1

$$

VAZ036>039-050-231100-
CENTRAL FOOTHILLS

CITY           SKY/WX    TMP DP  RH WIND       PRES   REMARKS
CHARLOTTESVILL CLOUDY    51  46  83 NE14      30.06R
CULPEPER*      CLOUDY    48  45  88 N5        30.09R
ORANGE*        CLOUDY    48  43  81 CALM      30.08R
GORDONSVILLE*  CLOUDY    49  45  83 N6        30.07R
WARRENTON*     CLOUDY    48  42  77 N6        30.08R

$$

VAZ055>057-231100-
NORTH AND CENTRAL PIEDMONT

CITY           SKY/WX    TMP DP  RH WIND       PRES   REMARKS
FREDERICKSBRG* CLOUDY    50  50 100 N6        30.06R
STAFFORD*      CLOUDY    48  47  96 N6        30.10R

$$

NCZ024-NYZ072-PAZ021-071-VAZ022-071-231100-
OTHER REGIONAL OBSERVATIONS

CITY           SKY/WX    TMP DP  RH WIND       PRES   REMARKS
NEW YORK CITY  MOCLDY    46  35  65 VRB6      30.09R
PHILADELPHIA   CLOUDY    46  36  68 N10       30.08R
PITTSBURGH     PTCLDY    40  33  76 NE6       30.09R
ROANOKE        CLOUDY    50  46  86 CALM      30.05S
RICHMOND       LGT RAIN  51  51 100 NW12      30.06R
RALEIGH        LGT RAIN  55  53  93 NE7       29.98R

$$

ANZ530>537-231100-
MARINE OBSERVATIONS

STATION/POSITION TIME  TEMP    WIND        PRES
                       AIR SEA DIR/SP/G
                 (UTC) (F)     (DEG/KT/KT) (MB)
THOMAS PT LIGHT  1000   50 59   20/ 17/ 18   N/A
BALT KEY BRIDGE  0942   48      10/ 11/ 12 1018.5R
COVE POINT       0942   51      40/ 15/ 18 1018.1R
LEWISETTA        0942   54 64   50/ 10/ 17 1016.9R
SOLOMONS ISLAND  0942   52 61   30/  8/ 11   N/A
PINEY POINT      0948           70/  6/  8   N/A

$$




USA.gov is the U.S. government's official web portal to all federal, state and local government web resources and services.